H-2A R/B (27601 NORAD) Tracking and Keplerian Element Data

This shows tracking and keplerian element data for the satellite.

Feedback or suggestion? Click here.




ElementValue
Catalog27601
NameH-2A R/B
Epoch Orbit10140
Epoch Day12.99942312
Epoch Year2024
RAAN357.988
Inclination98.2131
Eccentricity0.0071337
Argument of Perigee348.3285
Mean Anonmoly78.5076
Mean Motion14.32604134
Decay Rate7.3E-06
L11 27601U 02056E 24012.99942312 .00000730 00000+0 27595-3 0 9997
L22 27601 98.2131 357.9880 0071337 348.3285 78.5076 14.32604134101403



Live tracking and technical data element details for H-2A R/B (NORAD 27601). H-2A R/B can be tracked NOW for your location showing map with azimuth and elevation plus other details from your city location.







IsCatalogInMostPopularTable: catalog: 27601, numindb: 374
Update: records affected: 1



GetName: 27601 H-2A R/B

Hit Count: updated at: Sun, 14 Apr 2024 23:26:34 GMT